• In Belarus
  • List of Countries
  • For 7 days
  • Water Temperature
  • Satellite Maps
  • Weather Map
  • Weather Widgets
  • user-avatar
    Login

    Hourly Weather Potosi

    Today, 18 July, Wednesday

    Time Temperature Precipitation Wind Pressure Humidity
    00:00 +6°C° 0 mm 1 mps 467 mmHg 49%
    01:00 +5°C° 0 mm 1 mps 467 mmHg 50%
    02:00 +5°C° 0 mm 1 mps 466 mmHg 52%
    03:00 +4°C° 0 mm 1 mps 466 mmHg 52%
    04:00 +4°C° 0 mm 1 mps 465 mmHg 52%
    05:00 +3°C° 0 mm 1 mps 465 mmHg 53%
    06:00 +4°C° 0 mm 1 mps 466 mmHg 50%
    07:00 +5°C° 0 mm 1 mps 466 mmHg 47%
    08:00 +6°C° 0 mm 1 mps 467 mmHg 45%
    09:00 +7°C° 0 mm 2 mps 468 mmHg 38%
    10:00 +9°C° 0 mm 3 mps 469 mmHg 31%
    11:00 +11°C° 0 mm 4 mps 470 mmHg 25%
    12:00 +10°C° 0 mm 5 mps 470 mmHg 23%
    13:00 +11°C° 0 mm 6 mps 470 mmHg 22%
    14:00 +12°C° 0 mm 7 mps 470 mmHg 21%
    15:00 +11°C° 0 mm 7 mps 469 mmHg 23%
    16:00 +11°C° 0 mm 7 mps 468 mmHg 26%
    17:00 +10°C° 0 mm 8 mps 468 mmHg 28%
    18:00 +9°C° 0 mm 6 mps 467 mmHg 35%
    19:00 +7°C° 0 mm 5 mps 467 mmHg 42%
    20:00 +6°C° 0 mm 4 mps 466 mmHg 49%
    21:00 +5°C° 0 mm 3 mps 466 mmHg 52%
    22:00 +4°C° 0 mm 3 mps 465 mmHg 56%
    23:00 +5°C° 0 mm 2 mps 465 mmHg 59%

    Tomorrow, 19 July, Thursday

    Time Temperature Precipitation Wind Pressure Humidity
    00:00 +4°C° 0 mm 2 mps 465 mmHg 59%
    01:00 +4°C° 0 mm 2 mps 465 mmHg 59%
    02:00 +3°C° 0 mm 2 mps 464 mmHg 59%
    03:00 +3°C° 0 mm 2 mps 464 mmHg 60%
    04:00 +2°C° 0 mm 2 mps 463 mmHg 61%
    05:00 +2°C° 0 mm 2 mps 463 mmHg 61%
    06:00 +2°C° 0 mm 2 mps 463 mmHg 58%
    07:00 +3°C° 0 mm 2 mps 464 mmHg 55%
    08:00 +3°C° 0 mm 3 mps 465 mmHg 51%
    09:00 +5°C° 0 mm 5 mps 467 mmHg 43%
    10:00 +7°C° 0 mm 8 mps 468 mmHg 34%
    11:00 +9°C° 0 mm 10 mps 470 mmHg 25%
    12:00 +11°C° 0 mm 11 mps 469 mmHg 24%
    13:00 +12°C° 0 mm 11 mps 469 mmHg 23%
    14:00 +12°C° 0 mm 12 mps 469 mmHg 21%
    15:00 +11°C° 0.1 mm 10 mps 468 mmHg 25%
    16:00 +10°C° 0.1 mm 9 mps 467 mmHg 28%
    17:00 +9°C° 0.1 mm 8 mps 466 mmHg 32%
    18:00 +8°C° 0.5 mm 7 mps 466 mmHg 38%
    19:00 +7°C° 0.5 mm 6 mps 466 mmHg 45%
    20:00 +6°C° 0.5 mm 5 mps 466 mmHg 52%
    21:00 +5°C° 0.1 mm 4 mps 466 mmHg 52%
    22:00 +4°C° 0.1 mm 4 mps 466 mmHg 53%
    23:00 +4°C° 0.1 mm 3 mps 466 mmHg 54%

    Day after tomorrow, 20 July, Friday

    Time Temperature Precipitation Wind Pressure Humidity
    00:00 +3°C° 0 mm 3 mps 465 mmHg 54%
    01:00 +1°C° 0 mm 4 mps 465 mmHg 55%
    02:00 +1°C° 0 mm 4 mps 464 mmHg 56%
    03:00 0°C° 0 mm 4 mps 464 mmHg 54%
    04:00 0°C° 0 mm 5 mps 464 mmHg 53%
    05:00 0°C° 0 mm 5 mps 463 mmHg 52%
    06:00 0°C° 0 mm 5 mps 464 mmHg 49%
    07:00 0°C° 0 mm 5 mps 465 mmHg 47%
    08:00 +1°C° 0 mm 5 mps 466 mmHg 44%
    09:00 +3°C° 0 mm 6 mps 467 mmHg 33%
    10:00 +5°C° 0 mm 8 mps 469 mmHg 23%
    11:00 +8°C° 0 mm 10 mps 470 mmHg 12%
    12:00 +8°C° 0 mm 10 mps 470 mmHg 10%
    13:00 +10°C° 0 mm 9 mps 471 mmHg 9%
    14:00 +11°C° 0 mm 9 mps 471 mmHg 7%
    15:00 +10°C° 0 mm 8 mps 470 mmHg 7%
    16:00 +10°C° 0 mm 7 mps 470 mmHg 7%
    17:00 +9°C° 0 mm 7 mps 469 mmHg 7%
    18:00 +7°C° 0 mm 5 mps 468 mmHg 13%
    19:00 +5°C° 0 mm 3 mps 467 mmHg 20%
    20:00 +5°C° 0 mm 1 mps 466 mmHg 26%
    21:00 +4°C° 0 mm 1 mps 466 mmHg 33%
    22:00 +4°C° 0 mm 1 mps 466 mmHg 41%
    23:00 +2°C° 0 mm 2 mps 466 mmHg 49%

    21 July, Saturday

    Time Temperature Precipitation Wind Pressure Humidity
    00:00 +3°C° 0 mm 1 mps 466 mmHg 54%
    01:00 +3°C° 0 mm 1 mps 466 mmHg 60%
    02:00 +3°C° 0 mm 1 mps 465 mmHg 65%
    03:00 +3°C° 0 mm 1 mps 465 mmHg 65%
    04:00 +2°C° 0 mm 1 mps 465 mmHg 66%
    05:00 +2°C° 0 mm 1 mps 465 mmHg 67%
    06:00 +3°C° 0 mm 1 mps 466 mmHg 67%
    07:00 +2°C° 0 mm 2 mps 466 mmHg 67%
    08:00 +3°C° 0 mm 2 mps 467 mmHg 67%
    09:00 +4°C° 0 mm 2 mps 468 mmHg 59%
    10:00 +4°C° 0 mm 3 mps 469 mmHg 52%
    11:00 +5°C° 0 mm 3 mps 469 mmHg 44%
    12:00 +6°C° 0.2 mm 4 mps 469 mmHg 42%
    13:00 +6°C° 0.2 mm 4 mps 469 mmHg 39%
    14:00 +6°C° 0.2 mm 4 mps 469 mmHg 37%
    15:00 +7°C° 0.2 mm 3 mps 468 mmHg 39%
    16:00 +5°C° 0.2 mm 3 mps 468 mmHg 41%
    17:00 +6°C° 0.2 mm 2 mps 467 mmHg 43%
    18:00 +5°C° 0.1 mm 2 mps 467 mmHg 48%
    19:00 +4°C° 0.1 mm 2 mps 467 mmHg 53%
    20:00 +4°C° 0.1 mm 2 mps 467 mmHg 58%
    21:00 +3°C° 0 mm 2 mps 466 mmHg 60%
    22:00 +3°C° 0 mm 2 mps 466 mmHg 63%
    23:00 +3°C° 0 mm 2 mps 466 mmHg 65%

    22 July, Sunday

    Time Temperature Precipitation Wind Pressure Humidity
    00:00 +2°C° 0 mm 2 mps 466 mmHg 65%
    01:00 +2°C° 0 mm 2 mps 466 mmHg 65%
    02:00 +2°C° 0 mm 2 mps 465 mmHg 65%
    03:00 +2°C° 0 mm 2 mps 465 mmHg 64%
    04:00 +2°C° 0 mm 2 mps 465 mmHg 63%
    05:00 +2°C° 0 mm 2 mps 465 mmHg 62%
    06:00 +1°C° 0 mm 3 mps 465 mmHg 60%
    07:00 +1°C° 0 mm 3 mps 465 mmHg 59%
    08:00 +1°C° 0 mm 3 mps 466 mmHg 58%
    09:00 +2°C° 0 mm 6 mps 467 mmHg 46%
    10:00 +4°C° 0 mm 8 mps 469 mmHg 34%
    11:00 +7°C° 0 mm 10 mps 470 mmHg 22%
    12:00 +7°C° 0 mm 10 mps 470 mmHg 21%
    13:00 +8°C° 0 mm 10 mps 469 mmHg 20%
    14:00 +9°C° 0 mm 10 mps 469 mmHg 19%
    15:00 +8°C° 0 mm 9 mps 469 mmHg 18%
    16:00 +9°C° 0 mm 8 mps 468 mmHg 17%
    17:00 +9°C° 0 mm 7 mps 468 mmHg 16%
    18:00 +7°C° 0 mm 5 mps 467 mmHg 19%
    19:00 +5°C° 0 mm 3 mps 467 mmHg 22%
    20:00 +5°C° 0 mm 2 mps 466 mmHg 24%
    21:00 +4°C° 0 mm 2 mps 466 mmHg 25%
    22:00 +3°C° 0 mm 2 mps 466 mmHg 26%
    23:00 +3°C° 0 mm 2 mps 466 mmHg 27%

    23 July, Monday

    Time Temperature Precipitation Wind Pressure Humidity
    00:00 +2°C° 0 mm 2 mps 465 mmHg 28%
    01:00 +1°C° 0 mm 2 mps 465 mmHg 29%
    02:00 -1°C° 0 mm 2 mps 464 mmHg 30%
    03:00 -1°C° 0 mm 2 mps 464 mmHg 31%
    04:00 -2°C° 0 mm 2 mps 463 mmHg 32%
    05:00 -2°C° 0 mm 2 mps 463 mmHg 33%
    06:00 -1°C° 0 mm 2 mps 464 mmHg 31%
    07:00 +1°C° 0 mm 2 mps 465 mmHg 29%
    08:00 +1°C° 0 mm 2 mps 466 mmHg 27%
    09:00 +3°C° 0 mm 3 mps 468 mmHg 21%
    10:00 +5°C° 0 mm 3 mps 469 mmHg 16%
    11:00 +8°C° 0 mm 4 mps 471 mmHg 10%
    12:00 +9°C° 0 mm 5 mps 471 mmHg 10%
    13:00 +10°C° 0 mm 5 mps 471 mmHg 9%
    14:00 +11°C° 0 mm 6 mps 471 mmHg 9%
    15:00 +11°C° 0 mm 6 mps 471 mmHg 11%
    16:00 +10°C° 0 mm 6 mps 470 mmHg 12%
    17:00 +10°C° 0 mm 6 mps 470 mmHg 14%
    18:00 +8°C° 0 mm 5 mps 469 mmHg 20%
    19:00 +7°C° 0 mm 3 mps 468 mmHg 26%
    20:00 +5°C° 0 mm 2 mps 468 mmHg 31%
    21:00 +5°C° 0 mm 2 mps 468 mmHg 39%
    22:00 +4°C° 0 mm 2 mps 467 mmHg 47%
    23:00 +3°C° 0 mm 2 mps 467 mmHg 55%
    Show more